Flag for Germany Weather past 2 weeks in Seevetal, Lower Saxony, Germany

Now
79 °F

Passing clouds.


Feels Like: 80 °F
Forecast: 70 / 89 °F
Wind: 12 mph from Southeast

Location: Hamburg-Finkenwerder

Current Time: Jul 2, 2015 at 10:53:48 AM

Latest Report: Jul 2, 2015 at 10:20 AM


Visibility: N/A

Pressure: 30.18 "Hg

Humidity: 48%

Dew point: 57 °F

Location of SeevetalLocation

Historic Weather in Seevetal — Graph

°F

Seevetal temperature yesterday

Maximum temperature yesterday: 82 °F (at 4:20 PM)
Minimum temperature yesterday: 61 °F (at 5:50 AM)
Average temperature yesterday: 75 °F

Past Weeks' High & Low Weather Summary

 TemperatureHumidityPressure
High82 °F (Jul 1, 4:20 PM)100% (Jun 18, 6:20 AM)30.24 "Hg (Jun 18, 6:20 AM)
Low50 °F (Jun 19, 6:20 AM)30% (Jul 1, 6:50 PM)29.68 "Hg (Jun 22, 2:50 PM)
Average63 °F72%30.02 "Hg
* Reported Jun 17 9:20 AM — Jul 2 9:20 AM, Seevetal, Weather by CustomWeather, © 2015

Note: Actual official high and low records may vary slightly from our data, if they occured in-between our weather recording intervals... More about our weather records

Advertising

Seevetal weather history for previous 24 hours

 ConditionsComfort  
Time TempWeatherWind HumidityBarometerVisibility
9:20 AM
Thu, Jul 2
75 °FPassing clouds.9 mph50%30.18 "HgN/A
8:50 AM72 °FPassing clouds.13 mph57%30.18 "HgN/A
8:20 AM72 °FPassing clouds.10 mph57%30.21 "HgN/A
7:50 AM70 °FPassing clouds.7 mph60%30.18 "HgN/A
7:20 AM68 °FPassing clouds.7 mph64%30.18 "HgN/A
6:50 AM66 °FPassing clouds.8 mph73%30.18 "HgN/A
6:20 AM66 °FPassing clouds.8 mph73%30.18 "HgN/A
5:50 AM64 °FPassing clouds.9 mph78%30.18 "HgN/A
9:20 PM
Wed, Jul 1
79 °FPassing clouds.9 mph39%30.15 "HgN/A
8:50 PM79 °FPassing clouds.9 mph37%30.15 "HgN/A
8:20 PM81 °FPassing clouds.8 mph32%30.12 "HgN/A
7:50 PM81 °FPassing clouds.7 mph32%30.12 "HgN/A
7:20 PM82 °FPassing clouds.10 mph30%30.12 "HgN/A
6:50 PM82 °FPassing clouds.12 mph30%30.12 "HgN/A
6:20 PM82 °FPassing clouds.10 mph32%30.15 "HgN/A
5:50 PM82 °FPassing clouds.9 mph32%30.15 "HgN/A
5:20 PM82 °FPassing clouds.12 mph35%30.15 "HgN/A
4:50 PM82 °FPassing clouds.9 mph35%30.15 "HgN/A
4:20 PM82 °FPassing clouds.10 mph35%30.15 "HgN/A
3:50 PM81 °FPassing clouds.12 mph37%30.18 "HgN/A
3:20 PM81 °FPassing clouds.9 mph37%30.18 "HgN/A
2:50 PM81 °FPassing clouds.10 mph37%30.18 "HgN/A
2:20 PM81 °FPassing clouds.12 mph37%30.18 "HgN/A
1:50 PM79 °FPassing clouds.10 mph42%30.18 "HgN/A
1:20 PM79 °FPassing clouds.10 mph42%30.18 "HgN/A
12:50 PM77 °FPassing clouds.9 mph47%30.21 "HgN/A
12:20 PM77 °FPassing clouds.10 mph47%30.21 "HgN/A
11:50 AM75 °FPassing clouds.10 mph47%30.21 "HgN/A
11:20 AM75 °FPassing clouds.8 mph50%30.21 "HgN/A
10:50 AM73 °FPassing clouds.12 mph50%30.21 "HgN/A
10:20 AM72 °FPassing clouds.8 mph53%30.21 "HgN/A
Weather by CustomWeather, © 2015

See weather overviewHow to use our weather pages